Other Public Products
Issued by NWS Grand Forks, ND

Home | Current Version | Previous Version | Graphics & Text | Print | Product List | Glossary On
Versions: 1 2 3 4 5 6 7 8 9 10 11 12 13 14 15 16 17 18 19 20 21 22 23 24 25 26 27 28 29 30 31 32 33 34 35 36 37 38 39 40 41 42 43 44 45 46 47 48 49 50
000
FPUS83 KFGF 190131
OPUFGF
PRAIRIE TO PINES WEATHER ROUNDUP
NATIONAL WEATHER SERVICE EASTERN NORTH DAKOTA/GRAND FORKS ND
800 PM CDT SAT APR 18 2015

 **SATELLITE DATA USED TO AUGMENT SKY COVER AT AUTOMATED STATIONS**
 *****  WEATHER ACROSS EASTERN NORTH DAKOTA  *****

CITY           SKY/WX    TMP DP  RH WIND       PRES   REMARKS
GRAND FORKS    CLOUDY    65  29  25 SE7       29.86F
GRAND FORKS AF CLOUDY    65  28  24 E2        29.87F
GRAND CITY NWS   N/A     61 N/A N/A MISG        N/A
BUXTON           N/A     66  31  27 CALM        N/A
DEVILS LAKE    CLOUDY    59  30  33 S9        29.85F
FARGO          CLOUDY    69  28  21 E12       29.85F
WAHPETON ARPT  CLOUDY    66  27  22 E10       29.85F
$$

 *****  WEATHER ACROSS CENTRAL AND WESTERN NORTH DAKOTA  *****

CITY           SKY/WX    TMP DP  RH WIND       PRES   REMARKS
JAMESTOWN      CLOUDY    63  29  27 W8        29.86F
BISMARCK       CLOUDY    52  41  66 S12       29.89F
MINOT          LGT RAIN  53  41  63 NW23      29.88R
MINOT AFB      CLOUDY    54  43  66 N12       29.88R
GARRISON         N/A     53  46  77 NE3       29.90S
WILLISTON      CLOUDY    56  27  32 NW24G32   29.98R
DICKINSON      LGT RAIN  50  46  86 N6        29.93S
HETTINGER      LGT RAIN  47  43  86 W3        29.94R
$$

 *****  OTHER OBSERVATIONS NORTHEAST NORTH DAKOTA  *****

CITY           SKY/WX    TMP DP  RH WIND       PRES   REMARKS
WALHALLA       FAIR      61  28  29 S12       29.85F
LANGDON        FAIR      59  28  31 S12       29.86F
CAVALIER       FAIR      63  28  27 SE7       29.86F
GRAFTON        FAIR      61  32  33 SE7       29.87F
CANDO          FAIR      59  30  33 S13       29.85S
FORT TOTTEN      N/A     62  27  26 S7        29.95S
ROLLA          CLOUDY    57  37  47 NW14G26   29.87R
RUGBY            N/A    N/A N/A N/A MISG        N/A
 ***** THE ABOVE OBSERVATIONS ARE NON NWS ARE NOT QUALITY
        CONTROLLED AND MAY MIS-REPORT RAIN FOR SNOW...
$$

 *****  OTHER OBSERVATIONS SOUTHEAST NORTH DAKOTA *****

CITY           SKY/WX    TMP DP  RH WIND       PRES   REMARKS
COOPERSTOWN    NOT AVBL
VALLEY CITY    MOCLDY    63  32  31 SW10      29.86S
OAKES            N/A     59  36  41 NW7       29.83F
GWINNER        CLEAR     66  32  28 CALM      29.84F
BUFFALO        NOT AVBL
WYNDMERE         N/A     70  27  19 SE8         N/A
 ***** THE ABOVE OBSERVATIONS ARE NON NWS ARE NOT QUALITY
       CONTROLLED AND MAY MIS-REPORT RAIN FOR SNOW...
$$

  *****  WEATHER ACROSS NORTHERN MINNESOTA  *****

CITY           SKY/WX    TMP DP  RH WIND       PRES   REMARKS
FLAG ISLAND    MOCLDY    54  23  30 E10       29.92F
WARROAD        CLOUDY    48  34  57 SE5       29.93F
ROSEAU         CLOUDY    59  27  29 SE6       29.92S
HALLOCK        MOCLDY    61  21  21 SE9       29.87F
THF RVR FALLS  CLOUDY    61  30  31 E8        29.90F
HALSTAD          N/A     65  27  23 SE5         N/A
FOSSTON        CLOUDY    59  27  29 E7        29.90F
BAUDETTE       CLOUDY    57  23  26 SE6       29.95F
WASKISH        CLOUDY    55  25  30 CALM      29.95F
CROOKSTON      CLOUDY    64  30  27 SE6       29.88F
$$
  *****  WEATHER ACROSS CENTRAL AND WEST MINNESOTA  *****

CITY           SKY/WX    TMP DP  RH WIND       PRES   REMARKS
BEMIDJI        CLOUDY    56  31  38 E7        29.93F
PARK RAPIDS    CLOUDY    63  30  28 E8        29.92F
WADENA         CLOUDY    61  34  36 E7        29.90F
DETROIT LAKES  CLOUDY    63  32  31 SE9       29.91S
MOORHEAD       CLOUDY    66  28  24 E7        29.86F
FERGUS FALLS   CLOUDY    66  25  20 E9        29.87F
ELBOW LAKE     CLOUDY    64  32  29 SE10      29.87S
MORRIS MN      DRIZZLE   61  41  48 SE17G24   29.87R
STAPLES        CLOUDY    61  30  31 E6        29.92F
WHEATON        CLOUDY    63  32  31 E12       29.86F
$$
  *****  WEATHER ELSEWHERE ACROSS MINNESOTA  *****

CITY           SKY/WX    TMP DP  RH WIND       PRES   REMARKS
DULUTH         PTCLDY    42  27  55 E18G28    30.05F
INTRNTL FALLS  MOCLDY    55  15  20 SE12      29.99F
ELY            CLEAR     45  19  36 SE10G16   30.06F
CLOQUET        MOCLDY    41  28  60 E10G18    30.03F
BRAINERD       CLOUDY    57  34  41 E7        29.95F
HIBBING        MOCLDY    48  27  44 SE10      30.03S
ALEXANDRIA     CLOUDY    64  29  26 E14       29.90F
SAINT CLOUD    CLOUDY    65  33  30 E6        29.91S
MINNEAPOLIS    CLOUDY    68  35  29 E14       29.90S
$$

  *****  WEATHER ACROSS SOUTH DAKOTA  *****

CITY           SKY/WX    TMP DP  RH WIND       PRES   REMARKS
SIOUX FALLS    CLOUDY    57  54  89 E8        29.80F
BROOKINGS      CLOUDY    57  54  88 SE5       29.83F
WATERTOWN      LGT RAIN  57  54  89 E7        29.84F FOG
HURON          CLOUDY    55  54  96 E5        29.82F FOG
SISSETON         N/A     67  31  26 SE12      29.83F
ABERDEEN       LGT RAIN  57  49  74 S8        29.85F
MITCHELL       CLOUDY    58  56  93 NE6       29.82F FOG
PIERRE         LGT RAIN  50  49  96 NW9       29.84S FOG
MOBRIDGE       LGT RAIN  50  44  80 N16       29.85F
RAPID CITY     CLOUDY    46  43  89 NW10      29.93R
$$

  *****  SOME WEATHER IN NEARBY STATES *****

CITY           SKY/WX    TMP DP  RH WIND       PRES   REMARKS
GLASGOW MT     PTCLDY    52  18  26 NW22G35   30.08R
GREAT FALLS MT SUNNY     46  28  49 N7        30.26S
CHEYENNE WY    PTCLDY    40  32  73 N14       29.93S
SCOTTSBLUFF NE CLOUDY    50  32  50 N20G25    29.90R THUNDER
OMAHA NE       CLOUDY    61  57  87 SE7       29.83R
DES MOINES IA  LGT RAIN  62  60  93 NE6       29.83F
DAVENPORT IA   PTCLDY    67  50  54 E12       29.90S
CHICAGO IL     MOCLDY    49  32  52 NE13      30.02R
EAU CLAIRE WI  MOCLDY    60  28  29 E12       29.97F
LA CROSSE WI   MOCLDY    65  31  28 E14       29.96R
$$

  *****  SOME NATIONAL WEATHER *****

CITY           SKY/WX    TMP DP  RH WIND       PRES   REMARKS
LA GUARDIA NY  PTCLDY    71  33  24 N16G24    29.93R
RALEIGH NC     CLOUDY    69  62  78 S5        29.97R
ATLANTA GA     CLOUDY    68  65  90 E8        29.94F
NEW ORLEANS LA LGT RAIN  72  69  90 S8        29.87S
OKLAHOMA CITY  CLOUDY    61  52  72 S9        29.75F
ALBUQUERQUE NM PTCLDY    60  26  27 NW26G37   29.93R
SALT LAKE CITY MOSUNNY   66  29  24 NW7       29.97S
LOS ANGELES CA SUNNY     65  56  72 SW13      29.93F
BOISE ID       SUNNY     71  22  15 NW24G32   30.02F
SEATTLE WA     MOSUNNY   64  36  35 N9        30.28F
$$

*** WEATHER ACROSS MANITOBA...SASKATCHEWAN AND ONTARIO ***
                ***ONTARIO***

CITY           SKY/WX    TMP DP  RH WIND       PRES   REMARKS
GERALDTON      PTCLDY    41  27  56 E5        30.23S
THUNDER BAY    MOCLDY    37  27  65 E8        30.20F
SIOUX LOOKOUT  PTCLDY    52  19  28 SE5       30.04F
TORONTO        PTCLDY    52  30  43 N15       30.17R
BIG TROUT LK   CLOUDY    43  23  45 SE9       30.15S
PICKLE LAKE    MOCLDY    46  23  39 SE10      30.11S
DRYDEN         CLEAR     52  19  28 SE10      30.01F
KENORA         MOCLDY    55  19  24 SE9       29.96F
$$
                *** MANITOBA***

CITY           SKY/WX    TMP DP  RH WIND       PRES   REMARKS
BRANDON        MOCLDY    54  39  58 NW15      29.86R
DAUPHIN        CLOUDY    52  43  71 SW7       29.83S
ISLAND LAKE    CLOUDY    45  28  53 E9        29.95F
PILOT MOUND      N/A     61  27  27 S18         N/A
THE PAS        CLOUDY    43  37  81 NW5       29.87R
THOMPSON       LGT RAIN  37  36  93 E8        29.97F
WINNIPEG       MOCLDY    63  25  23 SE16      29.85F
LYNN LAKE      LGT RAIN  37  36  93 NE10      30.00R
CHURCHILL      FLURRIES  21  18  86 E10       30.31R WCI  10
GILLAM         FRZ RAIN  32  32 100 E8G18     30.10F FOG     WCI  25
$$
                ***SASKATCHEWAN***

CITY           SKY/WX    TMP DP  RH WIND       PRES   REMARKS
ESTEVAN        MOCLDY    54  30  40 NW21G30   29.95R
KINDERSLEY     MOSUNNY   46  28  49 NW20G32   30.12
LLOYDMINSTER   MOSUNNY   45  32  61 N18G24    30.14S
PRINCE ALBERT  MOCLDY    46  36  66 NW15G22   29.96R
REGINA         MOCLDY    48  30  49 NW23G31   30.01S
YORKTON        PTCLDY    50  34  53 NW14G23   29.90S



USA.gov is the U.S. government's official web portal to all federal, state and local government web resources and services.